Location: Dennehotso
(36.8461°N, 109.8435°W)
Time: 01:48:56
(UTC+00:00)

N. Korean satellite - Pass Details

Date: 08 March 2021
Orbit: 453 x 499 km, 97.2° (Epoch: 11 April)

Event Time Altitude Azimuth Distance (km) Brightness Sun altitude
Rises 12:36:48 0° 13° (NNE) 2,544 10.4 -13.5°
Reaches altitude 10° 12:38:51 10° 14° (NNE) 1,668 9.5 -13.0°
Maximum altitude 12:42:27 78° 101° (E) 504 6.7 -12.3°
Drops below altitude 10° 12:46:04 10° 188° (S) 1,679 9.2 -11.6°
Sets 12:48:08 0° 190° (S) 2,562 10.1 -11.2°
